Regional Weather Roundup
Issued by NWS

Home | Current Version | Previous Version | Text Only | Print | Product List | Glossary On
Versions: 1 2 3 4 5 6 7 8 9 10 11 12 13 14 15 16 17 18 19 20 21 22 23 24 25 26 27 28 29 30 31 32 33 34 35 36 37 38 39 40 41 42 43 44 45 46 47 48 49 50
000
ASUS46 KLOX 171312
RWRCA

SOUTHERN CALIFORNIA WEATHER ROUNDUP
NATIONAL WEATHER SERVICE OXNARD CALIFORNIA
600 AM PDT THU APR 17 2014

NOTE: "FAIR" INDICATES FEW OR NO CLOUDS BELOW 12,000 FEET WITH NO
SIGNIFICANT WEATHER AND/OR OBSTRUCTIONS TO VISIBILITY.

  -  STATIONS PRECEEDED BY AN ASTERISK (*) ARE NOT NWS OR FAA
     STATIONS AND ARE NOT SUBJECT TO NWS AND FAA QUALITY CONTROL.

CAZ041-042-087-171400-
LA AND ORANGE COUNTY COASTAL AREAS


CITY           SKY/WX    TMP DP  RH WIND       PRES   REMARKS
L.A. DOWNTOWN  CLOUDY    60  52  74 CALM      29.86S
L.A. AIRPORT   CLOUDY    60  52  74 SE3       29.87S
LONG BEACH     CLOUDY    60  51  72 S6        29.86F

CITY           SKY/WX    TMP DP  RH WIND       PRES   REMARKS
AVALON           N/A     59 N/A N/A MISG        N/A
FULLERTON      CLOUDY    60  54  80 CALM      29.86S
*GETTY CENTER    N/A     52  50  93 NE3         N/A
HAWTHORNE      CLOUDY    60  51  72 E6        29.87S
*LOS ALAMITOS  CLOUDY    59  54  82 VRB2      29.86S
*REDONDO BEACH   N/A     58  53  81 CALM      29.85S
SANTA ANA      CLOUDY    60  53  77 SE5       29.87R
STA MONICA APT CLOUDY    62  52  69 CALM      29.87S
*UCLA            N/A     57  52  82 N3        29.84S

$$

CAZ547-548-048-171400-
LA COUNTY VALLEYS AND INLAND EMPIRE


CITY           SKY/WX    TMP DP  RH WIND       PRES   REMARKS
BURBANK        CLOUDY    57  51  80 NE6       29.86S
VAN NUYS       CLOUDY    57  52  83 NE5       29.86S

CITY           SKY/WX    TMP DP  RH WIND       PRES   REMARKS
CORONA AIRPORT MOSUNNY   53  51  93 NW5       29.88R
*CHATSWORTH      N/A     56  53  90 NE5       29.84S
CHINO          CLOUDY    56  54  93 W7        29.88R FOG
*CLAREMONT       N/A     47  46  97 CALM        N/A
MARCH AFB      CLOUDY    52  50  93 W6        29.87R FOG
ONTARIO        CLOUDY    56  53  90 W8        29.86R FOG
*PASADENA        N/A     57  54  88 CALM        N/A
RIVERSIDE      CLOUDY    54  51  90 W6        29.87R
SAN BERNARDINO NOT AVBL
*SAN GABRIEL     N/A     58  53  81 CALM      29.84S
*WHITEMAN AP   NOT AVBL
*WOODLAND HILL   N/A     57  52  82 E2          N/A

$$

CAZ054-055-171400-
LA AND SAN BERNARDINO COUNTY MOUNTAINS


CITY           SKY/WX    TMP DP  RH WIND       PRES   REMARKS
*ACTON           N/A     43  34  71 CALM        N/A
*BIG BEAR AIRP SUNNY     32  21  64 CALM      30.06S
*BIG PINES       N/A     51  24  34 CALM        N/A
MT WILSON NWS    N/A     55  16  21 MISG        N/A
SANDBERG       PTCLDY    56  34  43 W6        29.93R

$$

CAZ028-029-059-060-099-171400-
ANTELOPE VALLEY AND SURROUNDING AREAS


CITY           SKY/WX    TMP DP  RH WIND       PRES   REMARKS
LANCASTER      CLEAR     46  31  55 W3        29.85R
PALMDALE       CLEAR     54  31  41 S7        29.85S

CITY           SKY/WX    TMP DP  RH WIND       PRES   REMARKS
29 PALMS       CLEAR     62  31  31 CALM      29.90R
BARSTOW/DAGGET CLEAR     62  30  29 W10       29.82R
BISHOP         CLEAR     44  25  47 NW8       29.93S
CHINA LAKE     PTCLDY    52  31  44 SW6       29.82S
EDWARDS AFB    PTCLDY    51  27  38 N3        29.82R
MOJAVE         FAIR      57  25  28 CALM      29.86R
NEEDLES        CLEAR     70  21  15 W8        29.80R
VICTORVILLE    CLEAR     55  37  50 S8        29.85S

$$

CAZ039-040-171400-
VENTURA AND SANTA BARBARA COUNTY COAST


CITY           SKY/WX    TMP DP  RH WIND       PRES   REMARKS
CAMARILLO      CLOUDY    55  51  86 NE7       29.86S FOG
NWS OXNARD       N/A     55  52  88 NE3       29.85S
OXNARD AIRPORT CLOUDY    56  52  86 NE5       29.86R FOG
*POINT MUGU    MOCLDY    56  51  84 NE6       29.85S FOG
SBA APT/GOLETA CLOUDY    58  54  86 E7        29.86R
*SANTA BARBARA   N/A     58  53  84 SW2       29.94R
*VENTURA         N/A     54  51  88 NE3       29.90S

$$

CAZ044-045-171400-
VENTURA COUNTY VALLEYS


CITY           SKY/WX    TMP DP  RH WIND       PRES   REMARKS
*SIMI VALLEY     N/A     55  51  89 CALM      29.82F
*OJAI            N/A     51  48  92 CALM      29.82R
*FILLMORE        N/A     50  48  91 CALM      29.77S

$$

CAZ053-171400-
VENTURA COUNTY MOUNTAINS


CITY           SKY/WX    TMP DP  RH WIND       PRES   REMARKS
*LOCKWOOD VLY    N/A     37  27  65 MISG        N/A
*ROSE VALLEY     N/A    N/A N/A N/A MISG        N/A

$$

CAZ034-035-036-171400-
CENTRAL COAST AND SANTA YNEZ VALLEY


CITY           SKY/WX    TMP DP  RH WIND       PRES   REMARKS
SAN LUIS OBISP MOCLDY    52  49  89 E3        29.84S FOG
SANTA MARIA    MOCLDY    53  49  86 SE9       29.85F FOG

CITY           SKY/WX    TMP DP  RH WIND       PRES   REMARKS
*CAL POLY SLO    N/A     50  50 100 CALM        N/A
*CAMBRIA         N/A     47  46  97 CALM      29.73S
*LOMPOC        CLOUDY    54  48  82 E3        29.86F
*PISMO BEACH     N/A     52  50  93 E1        29.85S
*SANTA YNEZ    FOG       50  48  93 CALM      29.85S VSB 1/2

$$

CAZ037-038-051-171400-
SAN LUIS OBISPO COUNTY INTERIOR AND CUYAMA VALLEY


CITY           SKY/WX    TMP DP  RH WIND       PRES   REMARKS
*CUYAMA          N/A     51  32  47 CALM      29.68F
PASO ROBLES    PTCLDY    49  40  71 CALM      29.82F

$$

CAZ032-033-061-171400-
SOUTHERN DESERTS


CITY           SKY/WX    TMP DP  RH WIND       PRES   REMARKS
BLYTHE         CLEAR     62  23  22 N3        29.79R
IMPERIAL       CLEAR     59  45  59 E5        29.77R
PALM SPRINGS   CLEAR     65  43  44 NW5       29.81R
THERMAL        CLEAR     54  42  64 CALM      29.77R

$$

ELSEWHERE ACROSS THE WESTERN UNITED STATES AND MEXICO


CITY           SKY/WX    TMP DP  RH WIND       PRES   REMARKS
DENVER, CO     PTCLDY    34  29  82 SW6       30.07R WCI  29
GRAND CANYON,  CLEAR     26  16  65 NE3       30.10R
HONOLULU, HI   PTCLDY    73  64  73 NE7       30.08F
KAHULUI, MAUI  LGT RAIN  72  66  83 NE12G20   30.07F
LAKE TAHOE, CA CLEAR     32  27  81 CALM      30.00S
LAS VEGAS, NV  PTCLDY    63  25  23 S10       29.83R
MAMMOTH LAKES, FAIR      32  23  69 CALM      30.07S
MEXICO CITY, M CLEAR     59  46  63 SE3       30.24R
PHOENIX, AZ    PTCLDY    65  25  22 E5        29.85R
PORTLAND, OR   LGT RAIN  50  49  96 SE5       29.92F
RENO, NV       PTCLDY    48  34  58 NW3       29.95F
SALT LAKE CITY PTCLDY    39  21  48 SE9       30.04R WCI  33
SAN DIEGO, CA  CLOUDY    61  53  75 SE8       29.89R
SAN FRANCISCO, PTCLDY    53  49  86 W9        29.81S
SAN JOSE, CA   CLEAR     54  49  83 CALM      29.80F
SEATTLE, WA    LGT RAIN  50  48  93 S9        29.88F
TIJUANA, MEX   CLOUDY    57  50  77 CALM      29.90R

$$

STATION/POSITION TIME  TEMP    WIND        PRES    VSBY  WAVE
                       AIR SEA DIR/SP/G                  HT/PER
                 (UTC) (F)     (DEG/KT/KT) (MB)    (MI)  (FT/S)
POINT ARGUELLO B NOT AVBL
WEST SANTA BARBA 1300   55 54  100/  8/ 12 1010.1F         7/11
POINT CONCEPTION NOT AVBL
EAST SANTA BARBA NOT AVBL
SANTA MONICA BAY 1200   58 60  130/ 10/ 12 1010.7R         4/14



USA.gov is the U.S. government's official web portal to all federal, state and local government web resources and services.